Back to catalog

COSMOS 2499 DEB

AlivePO
NORAD 49927·DEBRIS·🇷🇺 Russia

Launched May 23, 2014 from Plesetsk Cosmodrome

Loading…

Next Passes (next 24 hours)

TLE

FreshSource: Space-Track

Epoch: Sep 14, 2026, 01:41 UTC

1 49927U 14028J   26257.07036064  .00002821  00000-0  79507-2 0  9997
2 49927  82.4780 177.8828 0307798  61.5310 301.6440 12.96023251229577

Track COSMOS 2499 DEB in real time with AllMySat

Download on the App Store